Wetterdaten: Woche 08.01.24 - 14.01.24 (KW2)
Datum Zeit Temp. I. Temp. A. Feuchte I. Feuchte A. Luftdruck Regen Wind Richtung Sonnenschein Solar Taupunkt Windchill Windböen
08.01.2024 00:00 22,0 °C -1,6 °C 53 % 80 % 1026,8 hPa 0,0 l/m² 12,6 km/h (2 Bft) N-NO 0,00 h 0 W/m² -4,6 °C -7,0 °C 19,9 km/h (4 Bft)
08.01.2024 01:00 21,9 °C -2,6 °C 53 % 74 % 1027,1 hPa 0,0 l/m² 13,0 km/h (3 Bft) N-NO 0,00 h 0 W/m² -6,5 °C -8,5 °C 19,9 km/h (4 Bft)
08.01.2024 02:00 21,8 °C -4,2 °C 53 % 74 % 1027,3 hPa 0,0 l/m² 13,2 km/h (3 Bft) N 0,00 h 0 W/m² -8,1 °C -10,5 °C 19,6 km/h (3 Bft)
08.01.2024 03:00 21,8 °C -5,3 °C 53 % 72 % 1027,7 hPa 0,0 l/m² 11,6 km/h (2 Bft) N 0,00 h 0 W/m² -9,5 °C -10,6 °C 17,8 km/h (3 Bft)
08.01.2024 04:00 21,8 °C -6,1 °C 52 % 71 % 1028,3 hPa 0,0 l/m² 8,2 km/h (2 Bft) N-NO 0,00 h 0 W/m² -10,4 °C -8,4 °C 13,6 km/h (3 Bft)
08.01.2024 05:00 21,7 °C -7,0 °C 52 % 74 % 1029,0 hPa 0,0 l/m² 8,9 km/h (2 Bft) N-NO 0,00 h 0 W/m² -10,8 °C -9,9 °C 14,8 km/h (3 Bft)
08.01.2024 06:00 21,5 °C -7,5 °C 43 % 77 % 1029,5 hPa 0,0 l/m² 10,9 km/h (2 Bft) N-NO 0,00 h 0 W/m² -10,8 °C -12,5 °C 19,2 km/h (3 Bft)
08.01.2024 07:00 21,2 °C -7,6 °C 41 % 78 % 1030,1 hPa 0,0 l/m² 11,3 km/h (2 Bft) N-NO 0,00 h 0 W/m² -10,7 °C -13,0 °C 20,2 km/h (4 Bft)
08.01.2024 08:00 21,4 °C -7,8 °C 43 % 78 % 1030,8 hPa 0,0 l/m² 9,1 km/h (2 Bft) NO 0,00 h 17 W/m² -11,0 °C -10,9 °C 16,3 km/h (3 Bft)
08.01.2024 09:00 21,6 °C -7,8 °C 43 % 78 % 1031,7 hPa 0,0 l/m² 9,8 km/h (2 Bft) NO 0,70 h 60 W/m² -11,0 °C -11,7 °C 16,7 km/h (3 Bft)
08.01.2024 10:00 22,1 °C -7,3 °C 41 % 74 % 1032,4 hPa 0,0 l/m² 9,8 km/h (2 Bft) N-NO 0,95 h 183 W/m² -11,1 °C -11,1 °C 17,1 km/h (3 Bft)
08.01.2024 11:00 22,8 °C -6,3 °C 41 % 72 % 1032,6 hPa 0,0 l/m² 9,0 km/h (2 Bft) NO 1,02 h 264 W/m² -10,5 °C -9,3 °C 16,3 km/h (3 Bft)
08.01.2024 12:00 23,2 °C -5,6 °C 42 % 71 % 1032,7 hPa 0,0 l/m² 11,1 km/h (2 Bft) N-NO 1,00 h 273 W/m² -10,0 °C -10,5 °C 18,3 km/h (3 Bft)
08.01.2024 13:00 23,1 °C -4,9 °C 41 % 69 % 1032,7 hPa 0,0 l/m² 9,6 km/h (2 Bft) N-NO 0,98 h 236 W/m² -9,7 °C -8,3 °C 17,0 km/h (3 Bft)
08.01.2024 14:00 22,8 °C -4,4 °C 42 % 69 % 1032,9 hPa 0,0 l/m² 9,0 km/h (2 Bft) N-NO 1,00 h 162 W/m² -9,3 °C -7,4 °C 15,4 km/h (3 Bft)
08.01.2024 15:00 22,6 °C -4,4 °C 41 % 70 % 1033,3 hPa 0,0 l/m² 6,6 km/h (2 Bft) N-NO 0,45 h 45 W/m² -9,0 °C -5,5 °C 11,1 km/h (2 Bft)
08.01.2024 16:00 21,9 °C -5,1 °C 37 % 73 % 1033,9 hPa 0,0 l/m² 5,5 km/h (2 Bft) N-NO 0,00 h 10 W/m² -9,2 °C -5,5 °C 9,0 km/h (2 Bft)
08.01.2024 17:00 21,1 °C -5,8 °C 35 % 75 % 1034,5 hPa 0,0 l/m² 3,1 km/h (1 Bft) NO 0,00 h 0 W/m² -9,5 °C -5,8 °C 5,4 km/h (2 Bft)
08.01.2024 18:00 21,5 °C -6,9 °C 39 % 78 % 1034,8 hPa 0,0 l/m² 1,7 km/h (1 Bft) N 0,00 h 0 W/m² -10,1 °C -6,9 °C 3,1 km/h (1 Bft)
08.01.2024 19:00 21,5 °C -7,4 °C 40 % 82 % 1035,5 hPa 0,0 l/m² 2,9 km/h (1 Bft) N-NO 0,00 h 0 W/m² -10,1 °C -7,4 °C 4,8 km/h (1 Bft)
08.01.2024 20:00 21,8 °C -7,1 °C 43 % 77 % 1035,9 hPa 0,0 l/m² 2,6 km/h (1 Bft) N-NO 0,00 h 0 W/m² -10,4 °C -7,1 °C 5,1 km/h (1 Bft)
08.01.2024 21:00 22,3 °C -7,2 °C 43 % 77 % 1036,2 hPa 0,0 l/m² 4,3 km/h (1 Bft) NO 0,00 h 0 W/m² -10,5 °C -7,2 °C 7,5 km/h (2 Bft)
08.01.2024 22:00 22,2 °C -7,4 °C 43 % 80 % 1036,7 hPa 0,0 l/m² 5,2 km/h (1 Bft) N-NO 0,00 h 0 W/m² -10,2 °C -7,5 °C 8,6 km/h (2 Bft)
08.01.2024 23:00 22,1 °C -7,7 °C 44 % 82 % 1037,0 hPa 0,0 l/m² 4,0 km/h (1 Bft) N-NO 0,00 h 0 W/m² -10,3 °C -7,7 °C 7,5 km/h (2 Bft)
09.01.2024 00:00 22,1 °C -8,0 °C 44 % 83 % 1037,1 hPa 0,0 l/m² 4,5 km/h (1 Bft) N-NO 0,00 h 0 W/m² -10,5 °C -8,0 °C 7,3 km/h (2 Bft)
09.01.2024 01:00 22,1 °C -8,6 °C 45 % 84 % 1037,1 hPa 0,0 l/m² 4,2 km/h (1 Bft) N 0,00 h 0 W/m² -10,7 °C -8,6 °C 6,7 km/h (2 Bft)
09.01.2024 02:00 22,1 °C -9,6 °C 45 % 85 % 1037,1 hPa 0,0 l/m² 0,7 km/h (0 Bft) N 0,00 h 0 W/m² -11,5 °C -9,6 °C 1,4 km/h (1 Bft)
09.01.2024 03:00 22,1 °C -10,0 °C 45 % 86 % 1037,2 hPa 0,0 l/m² 2,8 km/h (1 Bft) N 0,00 h 0 W/m² -11,8 °C -10,0 °C 3,9 km/h (1 Bft)
09.01.2024 04:00 22,1 °C -9,8 °C 45 % 87 % 1037,1 hPa 0,0 l/m² 4,6 km/h (1 Bft) N 0,00 h 0 W/m² -11,6 °C -9,8 °C 6,9 km/h (2 Bft)
09.01.2024 05:00 22,0 °C -10,1 °C 43 % 86 % 1036,9 hPa 0,0 l/m² 3,2 km/h (1 Bft) N-NW 0,00 h 0 W/m² -11,9 °C -10,1 °C 4,9 km/h (1 Bft)
09.01.2024 06:00 21,9 °C -10,6 °C 43 % 87 % 1037,1 hPa 0,0 l/m² 1,9 km/h (1 Bft) N-NW 0,00 h 0 W/m² -12,4 °C -10,6 °C 3,5 km/h (1 Bft)
09.01.2024 07:00 21,8 °C -10,6 °C 42 % 87 % 1037,3 hPa 0,0 l/m² 2,0 km/h (1 Bft) N 0,00 h 0 W/m² -12,4 °C -10,6 °C 3,5 km/h (1 Bft)
09.01.2024 08:00 21,8 °C -10,6 °C 42 % 87 % 1037,6 hPa 0,0 l/m² 1,8 km/h (1 Bft) N 0,00 h 14 W/m² -12,3 °C -10,6 °C 3,7 km/h (1 Bft)
09.01.2024 09:00 23,2 °C -9,0 °C 41 % 85 % 1037,7 hPa 0,0 l/m² 2,5 km/h (1 Bft) N-NO 0,77 h 81 W/m² -11,1 °C -9,0 °C 5,4 km/h (1 Bft)
09.01.2024 10:00 23,3 °C -7,6 °C 41 % 82 % 1037,7 hPa 0,0 l/m² 5,2 km/h (1 Bft) NO 1,00 h 202 W/m² -10,2 °C -7,8 °C 9,1 km/h (2 Bft)
09.01.2024 11:00 23,6 °C -6,6 °C 41 % 80 % 1037,4 hPa 0,0 l/m² 5,1 km/h (1 Bft) NO 1,00 h 281 W/m² -9,5 °C -6,8 °C 9,3 km/h (2 Bft)
09.01.2024 12:00 23,7 °C -5,5 °C 42 % 78 % 1036,8 hPa 0,0 l/m² 6,1 km/h (2 Bft) N-NO 1,00 h 293 W/m² -8,7 °C -6,1 °C 10,9 km/h (2 Bft)
09.01.2024 13:00 23,6 °C -5,1 °C 42 % 77 % 1036,3 hPa 0,0 l/m² 7,7 km/h (2 Bft) N 1,00 h 253 W/m² -8,5 °C -6,8 °C 13,0 km/h (3 Bft)
09.01.2024 14:00 23,6 °C -4,9 °C 43 % 77 % 1035,9 hPa 0,0 l/m² 10,5 km/h (2 Bft) N 1,00 h 163 W/m² -8,4 °C -9,2 °C 17,3 km/h (3 Bft)
09.01.2024 15:00 23,4 °C -4,7 °C 43 % 76 % 1035,7 hPa 0,0 l/m² 6,5 km/h (2 Bft) N-NO 0,50 h 53 W/m² -8,3 °C -5,3 °C 11,9 km/h (2 Bft)
09.01.2024 16:00 22,8 °C -5,7 °C 37 % 79 % 1035,4 hPa 0,0 l/m² 3,6 km/h (1 Bft) N 0,00 h 9 W/m² -8,8 °C -5,8 °C 5,7 km/h (2 Bft)
09.01.2024 17:00 22,3 °C -7,5 °C 39 % 83 % 1035,6 hPa 0,0 l/m² 1,8 km/h (1 Bft) N 0,00 h 0 W/m² -9,9 °C -7,5 °C 2,6 km/h (1 Bft)
09.01.2024 18:00 22,4 °C -7,2 °C 41 % 81 % 1035,7 hPa 0,0 l/m² 2,7 km/h (1 Bft) NO 0,00 h 0 W/m² -9,9 °C -7,2 °C 5,5 km/h (2 Bft)
09.01.2024 19:00 22,4 °C -7,4 °C 42 % 80 % 1035,6 hPa 0,0 l/m² 1,7 km/h (1 Bft) NO 0,00 h 0 W/m² -10,3 °C -7,4 °C 3,4 km/h (1 Bft)
09.01.2024 20:00 22,8 °C -8,6 °C 44 % 83 % 1035,6 hPa 0,0 l/m² 0,7 km/h (0 Bft) NO 0,00 h 0 W/m² -11,0 °C -8,6 °C 1,9 km/h (1 Bft)
09.01.2024 21:00 23,0 °C -8,9 °C 46 % 84 % 1035,3 hPa 0,0 l/m² 2,6 km/h (1 Bft) N 0,00 h 0 W/m² -11,0 °C -8,9 °C 3,9 km/h (1 Bft)
09.01.2024 22:00 22,6 °C -8,7 °C 47 % 84 % 1035,2 hPa 0,0 l/m² 1,5 km/h (1 Bft) N 0,00 h 0 W/m² -10,9 °C -8,7 °C 3,0 km/h (1 Bft)
09.01.2024 23:00 22,4 °C -9,2 °C 48 % 85 % 1035,0 hPa 0,0 l/m² 0,2 km/h (0 Bft) N 0,00 h 0 W/m² -11,2 °C -9,2 °C 0,7 km/h (0 Bft)
10.01.2024 00:00 22,3 °C -9,6 °C 48 % 86 % 1034,6 hPa 0,0 l/m² 0,5 km/h (0 Bft) N 0,00 h 0 W/m² -11,5 °C -9,6 °C 1,5 km/h (1 Bft)
10.01.2024 01:00 22,3 °C -9,7 °C 48 % 86 % 1034,2 hPa 0,0 l/m² 1,8 km/h (1 Bft) N 0,00 h 0 W/m² -11,6 °C -9,7 °C 3,2 km/h (1 Bft)
10.01.2024 02:00 22,2 °C -9,9 °C 48 % 86 % 1034,0 hPa 0,0 l/m² 0,9 km/h (0 Bft) N 0,00 h 0 W/m² -11,7 °C -9,9 °C 2,3 km/h (1 Bft)
10.01.2024 03:00 22,2 °C -10,3 °C 48 % 87 % 1033,9 hPa 0,0 l/m² 1,0 km/h (0 Bft) N 0,00 h 0 W/m² -12,1 °C -10,3 °C 1,9 km/h (1 Bft)
10.01.2024 04:00 22,2 °C -10,1 °C 48 % 87 % 1033,5 hPa 0,0 l/m² 2,2 km/h (1 Bft) N 0,00 h 0 W/m² -11,8 °C -10,1 °C 4,0 km/h (1 Bft)
10.01.2024 05:00 22,3 °C -10,5 °C 44 % 87 % 1033,3 hPa 0,0 l/m² 1,2 km/h (1 Bft) N 0,00 h 0 W/m² -12,3 °C -10,5 °C 2,3 km/h (1 Bft)
10.01.2024 06:00 22,1 °C -11,4 °C 41 % 87 % 1033,4 hPa 0,0 l/m² 0,4 km/h (0 Bft) N 0,00 h 0 W/m² -13,0 °C -11,4 °C 0,8 km/h (0 Bft)
10.01.2024 07:00 22,1 °C -11,1 °C 41 % 87 % 1033,3 hPa 0,0 l/m² 1,2 km/h (1 Bft) N-NO 0,00 h 0 W/m² -12,8 °C -11,1 °C 2,0 km/h (1 Bft)
10.01.2024 08:00 22,1 °C -11,3 °C 42 % 87 % 1033,4 hPa 0,0 l/m² 0,5 km/h (0 Bft) N 0,00 h 15 W/m² -12,9 °C -11,3 °C 1,3 km/h (1 Bft)
10.01.2024 09:00 23,2 °C -9,4 °C 41 % 86 % 1033,4 hPa 0,0 l/m² 0,6 km/h (0 Bft) N-NW 0,67 h 74 W/m² -11,2 °C -9,4 °C 1,9 km/h (1 Bft)
10.01.2024 10:00 23,4 °C -7,4 °C 41 % 83 % 1033,5 hPa 0,0 l/m² 2,7 km/h (1 Bft) O-NO 1,00 h 186 W/m² -9,8 °C -7,4 °C 4,8 km/h (1 Bft)
10.01.2024 11:00 23,7 °C -6,2 °C 41 % 81 % 1033,2 hPa 0,0 l/m² 1,3 km/h (1 Bft) NO 1,00 h 275 W/m² -8,9 °C -6,2 °C 3,2 km/h (1 Bft)
10.01.2024 12:00 23,8 °C -5,2 °C 41 % 79 % 1032,8 hPa 0,0 l/m² 6,2 km/h (2 Bft) N-NW 1,00 h 280 W/m² -8,3 °C -5,7 °C 9,0 km/h (2 Bft)
10.01.2024 13:00 23,6 °C -4,0 °C 42 % 77 % 1032,5 hPa 0,0 l/m² 3,0 km/h (1 Bft) O-NO 1,00 h 244 W/m² -7,4 °C -4,0 °C 5,2 km/h (1 Bft)
10.01.2024 14:00 23,4 °C -3,5 °C 42 % 76 % 1032,3 hPa 0,0 l/m² 5,4 km/h (2 Bft) N 1,00 h 156 W/m² -7,1 °C -3,9 °C 8,3 km/h (2 Bft)
10.01.2024 15:00 23,2 °C -3,8 °C 43 % 77 % 1032,0 hPa 0,0 l/m² 4,3 km/h (1 Bft) N-NW 0,50 h 53 W/m² -7,3 °C -4,0 °C 6,9 km/h (2 Bft)
10.01.2024 16:00 22,8 °C -5,4 °C 39 % 82 % 1032,2 hPa 0,0 l/m² 0,3 km/h (0 Bft) NW 0,00 h 9 W/m² -8,0 °C -5,4 °C 1,2 km/h (1 Bft)
10.01.2024 17:00 22,3 °C -6,8 °C 37 % 84 % 1032,3 hPa 0,0 l/m² 0,6 km/h (0 Bft) NW 0,00 h 0 W/m² -9,1 °C -6,8 °C 1,4 km/h (1 Bft)
10.01.2024 18:00 22,4 °C -7,5 °C 40 % 86 % 1032,3 hPa 0,0 l/m² 1,0 km/h (0 Bft) W-NW 0,00 h 0 W/m² -9,5 °C -7,5 °C 2,0 km/h (1 Bft)
10.01.2024 19:00 22,3 °C -8,6 °C 41 % 86 % 1032,4 hPa 0,0 l/m² 0,3 km/h (0 Bft) W-NW 0,00 h 0 W/m² -10,5 °C -8,6 °C 1,2 km/h (1 Bft)
10.01.2024 20:00 22,5 °C -9,3 °C 42 % 88 % 1032,2 hPa 0,0 l/m² 1,3 km/h (1 Bft) W 0,00 h 0 W/m² -10,9 °C -9,3 °C 2,1 km/h (1 Bft)
10.01.2024 21:00 22,5 °C -9,5 °C 43 % 88 % 1032,5 hPa 0,0 l/m² 2,1 km/h (1 Bft) W 0,00 h 0 W/m² -11,1 °C -9,5 °C 3,4 km/h (1 Bft)
10.01.2024 22:00 22,5 °C -9,1 °C 43 % 87 % 1032,6 hPa 0,0 l/m² 1,8 km/h (1 Bft) W-NW 0,00 h 0 W/m² -10,9 °C -9,1 °C 3,1 km/h (1 Bft)
10.01.2024 23:00 22,3 °C -9,1 °C 44 % 87 % 1032,9 hPa 0,0 l/m² 1,1 km/h (1 Bft) N 0,00 h 0 W/m² -10,9 °C -9,1 °C 2,1 km/h (1 Bft)
11.01.2024 00:00 22,2 °C -9,0 °C 44 % 86 % 1032,8 hPa 0,0 l/m² 3,4 km/h (1 Bft) W-NW 0,00 h 0 W/m² -10,8 °C -9,0 °C 5,4 km/h (2 Bft)
11.01.2024 01:00 22,2 °C -9,7 °C 44 % 87 % 1032,6 hPa 0,0 l/m² 3,3 km/h (1 Bft) W-NW 0,00 h 0 W/m² -11,4 °C -9,7 °C 4,3 km/h (1 Bft)
11.01.2024 02:00 22,2 °C -10,1 °C 44 % 88 % 1032,3 hPa 0,0 l/m² 2,8 km/h (1 Bft) W-NW 0,00 h 0 W/m² -11,7 °C -10,1 °C 4,1 km/h (1 Bft)
11.01.2024 03:00 22,2 °C -10,2 °C 44 % 88 % 1032,3 hPa 0,0 l/m² 1,3 km/h (1 Bft) W-NW 0,00 h 0 W/m² -11,8 °C -10,2 °C 2,0 km/h (1 Bft)
11.01.2024 04:00 22,2 °C -10,4 °C 44 % 88 % 1032,0 hPa 0,0 l/m² 2,1 km/h (1 Bft) W-NW 0,00 h 0 W/m² -12,0 °C -10,4 °C 3,3 km/h (1 Bft)
11.01.2024 05:00 22,3 °C -10,4 °C 43 % 88 % 1032,3 hPa 0,0 l/m² 1,3 km/h (1 Bft) W-NW 0,00 h 0 W/m² -12,0 °C -10,4 °C 2,3 km/h (1 Bft)
11.01.2024 06:00 22,4 °C -10,4 °C 43 % 89 % 1032,2 hPa 0,0 l/m² 0,8 km/h (0 Bft) W-NW 0,00 h 0 W/m² -11,9 °C -10,4 °C 1,8 km/h (1 Bft)
11.01.2024 07:00 22,3 °C -10,3 °C 41 % 88 % 1032,3 hPa 0,0 l/m² 0,7 km/h (0 Bft) W-NW 0,00 h 0 W/m² -11,9 °C -10,3 °C 1,3 km/h (1 Bft)
11.01.2024 08:00 22,3 °C -9,7 °C 41 % 88 % 1032,0 hPa 0,0 l/m² 0,1 km/h (0 Bft) W-NW 0,00 h 10 W/m² -11,2 °C -9,7 °C 0,6 km/h (0 Bft)
11.01.2024 09:00 23,0 °C -8,3 °C 40 % 88 % 1032,4 hPa 0,0 l/m² 1,8 km/h (1 Bft) W-NW 0,63 h 67 W/m² -9,9 °C -8,3 °C 2,9 km/h (1 Bft)
11.01.2024 10:00 23,5 °C -6,6 °C 40 % 85 % 1032,5 hPa 0,0 l/m² 1,0 km/h (0 Bft) S-SW 1,00 h 190 W/m² -8,7 °C -6,6 °C 2,0 km/h (1 Bft)
11.01.2024 11:00 23,8 °C -4,6 °C 40 % 83 % 1031,9 hPa 0,0 l/m² 2,8 km/h (1 Bft) S-SW 1,00 h 293 W/m² -7,0 °C -4,6 °C 4,8 km/h (1 Bft)
11.01.2024 12:00 23,8 °C -3,0 °C 41 % 80 % 1031,5 hPa 0,0 l/m² 2,0 km/h (1 Bft) S-SW 1,00 h 220 W/m² -5,9 °C -3,0 °C 3,9 km/h (1 Bft)
11.01.2024 13:00 23,7 °C -1,6 °C 41 % 76 % 1030,9 hPa 0,0 l/m² 4,9 km/h (1 Bft) W-SW 1,00 h 161 W/m² -5,2 °C -1,6 °C 7,8 km/h (2 Bft)
11.01.2024 14:00 23,4 °C -1,3 °C 41 % 75 % 1031,0 hPa 0,0 l/m² 6,2 km/h (2 Bft) NW 1,00 h 103 W/m² -5,2 °C -2,3 °C 11,1 km/h (2 Bft)
11.01.2024 15:00 23,2 °C -2,4 °C 42 % 83 % 1031,3 hPa 0,0 l/m² 10,5 km/h (2 Bft) NW 0,13 h 19 W/m² -5,0 °C -6,4 °C 18,3 km/h (3 Bft)
11.01.2024 16:00 22,9 °C -2,7 °C 41 % 89 % 1031,2 hPa 0,0 l/m² 6,7 km/h (2 Bft) W 0,00 h 6 W/m² -4,4 °C -3,7 °C 12,1 km/h (2 Bft)
11.01.2024 17:00 22,7 °C -2,5 °C 39 % 92 % 1030,8 hPa 0,0 l/m² 1,7 km/h (1 Bft) W 0,00 h 0 W/m² -3,7 °C -2,5 °C 2,9 km/h (1 Bft)
11.01.2024 18:00 22,8 °C -1,6 °C 42 % 93 % 1031,3 hPa 0,0 l/m² 1,2 km/h (1 Bft) W 0,00 h 0 W/m² -2,6 °C -1,6 °C 3,7 km/h (1 Bft)
11.01.2024 19:00 22,7 °C -0,7 °C 43 % 93 % 1031,6 hPa 0,0 l/m² 3,9 km/h (1 Bft) NW 0,00 h 0 W/m² -1,7 °C -0,8 °C 8,2 km/h (2 Bft)
11.01.2024 20:00 22,8 °C -0,3 °C 44 % 93 % 1031,7 hPa 0,0 l/m² 3,3 km/h (1 Bft) W-NW 0,00 h 0 W/m² -1,3 °C -0,4 °C 7,2 km/h (2 Bft)
11.01.2024 21:00 23,0 °C -0,3 °C 46 % 93 % 1032,0 hPa 0,0 l/m² 1,6 km/h (1 Bft) W-NW 0,00 h 0 W/m² -1,3 °C -0,3 °C 4,8 km/h (1 Bft)
11.01.2024 22:00 22,9 °C -0,3 °C 48 % 93 % 1032,2 hPa 0,0 l/m² 2,9 km/h (1 Bft) NW 0,00 h 0 W/m² -1,3 °C -0,3 °C 5,9 km/h (2 Bft)
11.01.2024 23:00 22,5 °C -0,4 °C 48 % 93 % 1032,4 hPa 0,0 l/m² 3,0 km/h (1 Bft) W-NW 0,00 h 0 W/m² -1,4 °C -0,4 °C 5,8 km/h (2 Bft)
12.01.2024 00:00 22,4 °C -0,5 °C 48 % 93 % 1032,0 hPa 0,0 l/m² 2,3 km/h (1 Bft) W-NW 0,00 h 0 W/m² -1,5 °C -0,5 °C 5,2 km/h (1 Bft)
12.01.2024 01:00 22,4 °C -0,6 °C 48 % 93 % 1032,0 hPa 0,0 l/m² 3,0 km/h (1 Bft) NW 0,00 h 0 W/m² -1,6 °C -0,6 °C 6,0 km/h (2 Bft)
12.01.2024 02:00 22,3 °C -0,7 °C 48 % 93 % 1032,0 hPa 0,0 l/m² 4,0 km/h (1 Bft) NW 0,00 h 0 W/m² -1,7 °C -0,8 °C 7,5 km/h (2 Bft)
12.01.2024 03:00 22,3 °C -0,8 °C 48 % 93 % 1032,0 hPa 0,0 l/m² 2,0 km/h (1 Bft) W-NW 0,00 h 0 W/m² -1,8 °C -0,8 °C 4,8 km/h (1 Bft)
12.01.2024 04:00 22,3 °C -0,8 °C 47 % 93 % 1031,9 hPa 0,0 l/m² 3,4 km/h (1 Bft) W-NW 0,00 h 0 W/m² -1,8 °C -1,0 °C 7,1 km/h (2 Bft)
12.01.2024 05:00 22,5 °C -0,8 °C 46 % 93 % 1031,6 hPa 0,0 l/m² 1,7 km/h (1 Bft) W-NW 0,00 h 0 W/m² -1,8 °C -0,8 °C 4,3 km/h (1 Bft)
12.01.2024 06:00 22,6 °C -0,8 °C 46 % 93 % 1031,3 hPa 0,0 l/m² 1,9 km/h (1 Bft) W-NW 0,00 h 0 W/m² -1,7 °C -0,8 °C 4,0 km/h (1 Bft)
12.01.2024 07:00 22,6 °C -0,6 °C 45 % 94 % 1031,3 hPa 0,0 l/m² 0,5 km/h (0 Bft) W 0,00 h 0 W/m² -1,5 °C -0,6 °C 1,5 km/h (1 Bft)
12.01.2024 08:00 22,6 °C -0,5 °C 45 % 94 % 1031,3 hPa 0,0 l/m² 0,1 km/h (0 Bft) W 0,00 h 6 W/m² -1,3 °C -0,5 °C 0,1 km/h (0 Bft)
12.01.2024 09:00 22,7 °C 0,1 °C 45 % 94 % 1031,1 hPa 0,0 l/m² 4,0 km/h (1 Bft) W 0,00 h 11 W/m² -0,8 °C -0,1 °C 7,1 km/h (2 Bft)
12.01.2024 10:00 22,7 °C 0,2 °C 45 % 94 % 1030,8 hPa 0,0 l/m² 6,6 km/h (2 Bft) SW 0,00 h 29 W/m² -0,7 °C -0,6 °C 9,6 km/h (2 Bft)
12.01.2024 11:00 22,7 °C 0,2 °C 45 % 94 % 1030,6 hPa 0,0 l/m² 9,0 km/h (2 Bft) SW 0,00 h 42 W/m² -0,7 °C -2,4 °C 12,4 km/h (2 Bft)
12.01.2024 12:00 22,6 °C 0,2 °C 45 % 93 % 1030,1 hPa 0,0 l/m² 9,8 km/h (2 Bft) SW 0,43 h 51 W/m² -0,7 °C -3,0 °C 13,5 km/h (3 Bft)
12.01.2024 13:00 22,5 °C 0,3 °C 45 % 92 % 1029,7 hPa 0,0 l/m² 8,5 km/h (2 Bft) SW 0,32 h 49 W/m² -0,8 °C -1,8 °C 12,8 km/h (3 Bft)
12.01.2024 14:00 22,3 °C 0,5 °C 42 % 92 % 1029,1 hPa 0,0 l/m² 6,0 km/h (2 Bft) SW 0,00 h 31 W/m² -0,7 °C 0,1 °C 9,8 km/h (2 Bft)
12.01.2024 15:00 22,2 °C 0,6 °C 42 % 91 % 1028,9 hPa 0,0 l/m² 8,0 km/h (2 Bft) W 0,00 h 12 W/m² -0,7 °C -1,7 °C 12,5 km/h (2 Bft)
12.01.2024 16:00 22,2 °C 0,2 °C 43 % 90 % 1028,2 hPa 0,0 l/m² 5,8 km/h (2 Bft) SW 0,00 h 8 W/m² -1,2 °C -0,3 °C 9,3 km/h (2 Bft)
12.01.2024 17:00 22,1 °C -0,0 °C 43 % 92 % 1028,3 hPa 0,0 l/m² 3,7 km/h (1 Bft) SW 0,00 h 0 W/m² -1,2 °C -0,2 °C 7,1 km/h (2 Bft)
12.01.2024 18:00 22,2 °C 0,3 °C 44 % 91 % 1028,0 hPa 0,0 l/m² 6,1 km/h (2 Bft) SW 0,00 h 0 W/m² -1,0 °C -1,1 °C 10,6 km/h (2 Bft)
12.01.2024 19:00 22,2 °C 0,3 °C 44 % 91 % 1027,6 hPa 0,0 l/m² 11,2 km/h (2 Bft) SW 0,00 h 0 W/m² -1,0 °C -4,0 °C 17,4 km/h (3 Bft)
12.01.2024 20:00 22,4 °C 0,4 °C 44 % 90 % 1027,3 hPa 0,0 l/m² 13,7 km/h (3 Bft) SW 0,00 h 0 W/m² -1,0 °C -5,6 °C 20,1 km/h (4 Bft)
12.01.2024 21:00 22,6 °C 0,5 °C 44 % 90 % 1026,8 hPa 0,0 l/m² 13,7 km/h (3 Bft) SW 0,00 h 0 W/m² -1,0 °C -5,5 °C 20,2 km/h (4 Bft)
12.01.2024 22:00 22,7 °C 0,7 °C 44 % 90 % 1026,3 hPa 0,0 l/m² 16,6 km/h (3 Bft) SW 0,00 h 0 W/m² -0,8 °C -7,0 °C 23,3 km/h (4 Bft)
12.01.2024 23:00 22,5 °C 0,8 °C 44 % 90 % 1026,2 hPa 0,0 l/m² 15,2 km/h (3 Bft) SW 0,00 h 0 W/m² -0,7 °C -6,1 °C 21,7 km/h (4 Bft)
13.01.2024 00:00 22,3 °C 0,8 °C 44 % 89 % 1025,7 hPa 0,0 l/m² 15,7 km/h (3 Bft) SW 0,00 h 0 W/m² -0,7 °C -6,3 °C 21,8 km/h (4 Bft)
13.01.2024 01:00 22,1 °C 0,7 °C 45 % 90 % 1025,2 hPa 0,0 l/m² 13,2 km/h (3 Bft) SW 0,00 h 0 W/m² -0,7 °C -4,9 °C 17,6 km/h (3 Bft)
13.01.2024 02:00 21,9 °C 0,7 °C 45 % 91 % 1024,8 hPa 0,0 l/m² 11,8 km/h (2 Bft) SW 0,00 h 0 W/m² -0,6 °C -4,0 °C 16,3 km/h (3 Bft)
13.01.2024 03:00 21,8 °C 0,7 °C 45 % 91 % 1024,1 hPa 0,0 l/m² 12,9 km/h (3 Bft) SW 0,00 h 0 W/m² -0,5 °C -4,6 °C 17,5 km/h (3 Bft)
13.01.2024 04:00 21,6 °C 0,8 °C 45 % 91 % 1023,4 hPa 0,0 l/m² 11,4 km/h (2 Bft) SW 0,00 h 0 W/m² -0,5 °C -3,5 °C 16,3 km/h (3 Bft)
13.01.2024 05:00 21,6 °C 0,9 °C 45 % 91 % 1022,8 hPa 0,2 l/m² 10,6 km/h (2 Bft) SW 0,00 h 0 W/m² -0,4 °C -2,8 °C 14,4 km/h (3 Bft)
13.01.2024 06:00 21,6 °C 1,0 °C 45 % 91 % 1022,5 hPa 0,0 l/m² 13,2 km/h (3 Bft) SW 0,00 h 0 W/m² -0,3 °C -4,6 °C 17,3 km/h (3 Bft)
13.01.2024 07:00 21,5 °C 1,0 °C 45 % 90 % 1022,2 hPa 0,0 l/m² 9,6 km/h (2 Bft) SW 0,00 h 0 W/m² -0,4 °C -1,9 °C 12,4 km/h (2 Bft)
13.01.2024 08:00 21,5 °C 1,1 °C 46 % 90 % 1021,7 hPa 0,0 l/m² 9,2 km/h (2 Bft) SW 0,00 h 9 W/m² -0,4 °C -1,5 °C 12,7 km/h (3 Bft)
13.01.2024 09:00 21,7 °C 1,3 °C 46 % 89 % 1020,7 hPa 0,2 l/m² 11,8 km/h (2 Bft) SW 0,00 h 30 W/m² -0,4 °C -3,4 °C 16,7 km/h (3 Bft)
13.01.2024 10:00 21,7 °C 1,6 °C 44 % 88 % 1020,3 hPa 0,0 l/m² 11,6 km/h (2 Bft) SW 0,73 h 75 W/m² -0,2 °C -2,7 °C 15,6 km/h (3 Bft)
13.01.2024 11:00 21,7 °C 2,2 °C 43 % 86 % 1019,3 hPa 0,2 l/m² 13,0 km/h (3 Bft) SW 1,00 h 122 W/m² 0,1 °C -3,1 °C 18,2 km/h (3 Bft)
13.01.2024 12:00 21,7 °C 2,5 °C 46 % 85 % 1018,6 hPa 0,2 l/m² 17,4 km/h (3 Bft) SW 0,82 h 88 W/m² 0,3 °C -5,1 °C 23,4 km/h (4 Bft)
13.01.2024 13:00 21,8 °C 2,5 °C 49 % 85 % 1017,6 hPa 0,0 l/m² 16,2 km/h (3 Bft) SW 0,72 h 58 W/m² 0,2 °C -4,5 °C 21,5 km/h (4 Bft)
13.01.2024 14:00 21,7 °C 2,4 °C 48 % 86 % 1016,6 hPa 0,0 l/m² 21,0 km/h (4 Bft) SW 0,17 h 45 W/m² 0,3 °C -6,9 °C 27,2 km/h (5 Bft)
13.01.2024 15:00 21,6 °C 1,8 °C 47 % 87 % 1015,9 hPa 0,0 l/m² 22,0 km/h (4 Bft) SW 0,00 h 20 W/m² -0,1 °C -8,0 °C 28,6 km/h (5 Bft)
13.01.2024 16:00 21,5 °C 1,6 °C 46 % 89 % 1015,1 hPa 0,0 l/m² 22,0 km/h (4 Bft) SW 0,00 h 6 W/m² 0,0 °C -8,4 °C 28,6 km/h (5 Bft)
13.01.2024 17:00 21,4 °C 1,6 °C 46 % 89 % 1014,6 hPa 0,0 l/m² 20,2 km/h (4 Bft) SW 0,00 h 0 W/m² 0,0 °C -7,5 °C 26,5 km/h (4 Bft)
13.01.2024 18:00 21,4 °C 2,0 °C 46 % 88 % 1013,8 hPa 0,0 l/m² 23,4 km/h (4 Bft) SW 0,00 h 0 W/m² 0,3 °C -8,3 °C 32,3 km/h (5 Bft)
13.01.2024 19:00 21,3 °C 1,9 °C 46 % 89 % 1013,4 hPa 0,0 l/m² 24,7 km/h (4 Bft) SW 0,00 h 0 W/m² 0,3 °C -8,9 °C 33,2 km/h (5 Bft)
13.01.2024 20:00 21,3 °C 2,0 °C 46 % 89 % 1013,2 hPa 0,0 l/m² 21,1 km/h (4 Bft) SW 0,00 h 0 W/m² 0,4 °C -7,5 °C 29,2 km/h (5 Bft)
13.01.2024 21:00 21,3 °C 1,8 °C 46 % 90 % 1012,5 hPa 0,0 l/m² 19,2 km/h (3 Bft) SW 0,00 h 0 W/m² 0,3 °C -6,9 °C 26,6 km/h (4 Bft)
13.01.2024 22:00 21,3 °C 1,7 °C 46 % 90 % 1011,7 hPa 0,0 l/m² 21,9 km/h (4 Bft) SW 0,00 h 0 W/m² 0,2 °C -8,2 °C 29,1 km/h (5 Bft)
13.01.2024 23:00 21,1 °C 2,0 °C 46 % 89 % 1011,1 hPa 0,0 l/m² 23,8 km/h (4 Bft) SW 0,00 h 0 W/m² 0,4 °C -8,6 °C 32,0 km/h (5 Bft)
14.01.2024 00:00 21,0 °C 1,7 °C 46 % 89 % 1010,7 hPa 0,0 l/m² 22,6 km/h (4 Bft) SW 0,00 h 0 W/m² 0,2 °C -8,4 °C 30,6 km/h (5 Bft)
14.01.2024 01:00 20,9 °C 1,6 °C 46 % 90 % 1009,9 hPa 0,0 l/m² 23,2 km/h (4 Bft) SW 0,00 h 0 W/m² 0,2 °C -8,7 °C 30,7 km/h (5 Bft)
14.01.2024 02:00 20,9 °C 1,6 °C 46 % 90 % 1009,2 hPa 0,0 l/m² 22,6 km/h (4 Bft) SW 0,00 h 0 W/m² 0,2 °C -8,5 °C 30,3 km/h (5 Bft)
14.01.2024 03:00 20,9 °C 1,8 °C 47 % 91 % 1008,6 hPa 0,2 l/m² 21,1 km/h (4 Bft) SW 0,00 h 0 W/m² 0,4 °C -7,7 °C 28,8 km/h (5 Bft)
14.01.2024 04:00 20,9 °C 1,9 °C 47 % 90 % 1008,2 hPa 0,0 l/m² 20,6 km/h (4 Bft) SW 0,00 h 0 W/m² 0,5 °C -7,2 °C 27,5 km/h (5 Bft)
14.01.2024 05:00 20,8 °C 1,6 °C 47 % 91 % 1007,9 hPa 0,2 l/m² 22,2 km/h (4 Bft) SW 0,00 h 0 W/m² 0,3 °C -8,4 °C 30,1 km/h (5 Bft)
14.01.2024 06:00 20,8 °C 1,5 °C 47 % 92 % 1007,8 hPa 0,2 l/m² 22,3 km/h (4 Bft) SW 0,00 h 0 W/m² 0,3 °C -8,6 °C 29,9 km/h (5 Bft)
14.01.2024 07:00 20,8 °C 1,4 °C 47 % 92 % 1007,7 hPa 0,0 l/m² 19,0 km/h (3 Bft) SW 0,00 h 0 W/m² 0,2 °C -7,3 °C 26,1 km/h (4 Bft)
14.01.2024 08:00 20,7 °C 1,3 °C 48 % 92 % 1007,9 hPa 0,2 l/m² 19,1 km/h (3 Bft) SW 0,00 h 11 W/m² 0,2 °C -7,5 °C 26,0 km/h (4 Bft)
14.01.2024 09:00 21,2 °C 1,5 °C 49 % 93 % 1008,0 hPa 0,2 l/m² 16,6 km/h (3 Bft) SW 0,12 h 38 W/m² 0,5 °C -5,9 °C 22,8 km/h (4 Bft)
14.01.2024 10:00 21,3 °C 2,0 °C 46 % 92 % 1007,9 hPa 0,0 l/m² 17,9 km/h (3 Bft) SW 0,97 h 73 W/m² 0,9 °C -5,9 °C 24,5 km/h (4 Bft)
14.01.2024 11:00 21,2 °C 2,5 °C 45 % 91 % 1007,5 hPa 0,0 l/m² 19,7 km/h (3 Bft) SW 0,95 h 105 W/m² 1,2 °C -6,3 °C 26,9 km/h (4 Bft)
14.01.2024 12:00 21,3 °C 2,8 °C 47 % 90 % 1006,8 hPa 0,0 l/m² 19,1 km/h (3 Bft) SW 0,98 h 110 W/m² 1,3 °C -5,6 °C 26,7 km/h (4 Bft)
14.01.2024 13:00 21,4 °C 2,8 °C 48 % 89 % 1005,9 hPa 0,0 l/m² 21,4 km/h (4 Bft) SW 0,95 h 102 W/m² 1,1 °C -6,6 °C 29,1 km/h (5 Bft)
14.01.2024 14:00 21,4 °C 2,2 °C 48 % 90 % 1005,1 hPa 0,0 l/m² 21,8 km/h (4 Bft) SW 0,97 h 101 W/m² 0,7 °C -7,4 °C 29,8 km/h (5 Bft)
14.01.2024 15:00 21,4 °C 1,8 °C 48 % 90 % 1004,4 hPa 0,0 l/m² 21,9 km/h (4 Bft) SW 0,00 h 29 W/m² 0,4 °C -8,0 °C 30,0 km/h (5 Bft)
14.01.2024 16:00 21,7 °C 1,7 °C 49 % 89 % 1003,7 hPa 0,0 l/m² 21,8 km/h (4 Bft) SW 0,00 h 7 W/m² 0,1 °C -8,2 °C 30,1 km/h (5 Bft)
14.01.2024 17:00 21,7 °C 1,5 °C 49 % 89 % 1003,1 hPa 0,0 l/m² 16,6 km/h (3 Bft) SW 0,00 h 0 W/m² -0,1 °C -6,0 °C 23,0 km/h (4 Bft)
14.01.2024 18:00 21,6 °C 1,4 °C 50 % 88 % 1002,3 hPa 0,0 l/m² 20,6 km/h (4 Bft) SW 0,00 h 0 W/m² -0,3 °C -8,0 °C 27,4 km/h (5 Bft)
14.01.2024 19:00 21,4 °C 1,4 °C 51 % 88 % 1001,6 hPa 0,0 l/m² 18,6 km/h (3 Bft) SW 0,00 h 0 W/m² -0,4 °C -7,1 °C 24,2 km/h (4 Bft)
14.01.2024 20:00 21,5 °C 1,3 °C 52 % 87 % 1000,8 hPa 0,0 l/m² 18,9 km/h (3 Bft) SW 0,00 h 0 W/m² -0,6 °C -7,4 °C 25,5 km/h (4 Bft)
14.01.2024 21:00 21,6 °C 1,2 °C 52 % 87 % 1000,1 hPa 0,0 l/m² 20,3 km/h (4 Bft) SW 0,00 h 0 W/m² -0,7 °C -8,2 °C 27,4 km/h (5 Bft)
14.01.2024 22:00 21,3 °C 1,1 °C 52 % 88 % 999,3 hPa 0,0 l/m² 22,7 km/h (4 Bft) SW 0,00 h 0 W/m² -0,7 °C -9,3 °C 29,2 km/h (5 Bft)
14.01.2024 23:00 21,1 °C 1,1 °C 51 % 87 % 998,9 hPa 0,0 l/m² 21,2 km/h (4 Bft) SW 0,00 h 0 W/m² -0,8 °C -8,6 °C 28,4 km/h (5 Bft)
Min-Datum _ 08.01.24 10.01.24 08.01.24 08.01.24 14.01.24 - 12.01.24 - - - 10.01.24 08.01.24 12.01.24
_ Min-Zeit 16:54 06:33 16:44 13:54 23:53 - 18:06 - - - 06:33 10:13 18:06
Minimum _ 20,4 °C -11,7 °C 22 % 67 % 998,7 hPa - 0,0 km/h (0 Bft) - - - -13,4 °C -17,0 °C 0,0 km/h (0 Bft)
Max-Datum _ 11.01.24 14.01.24 08.01.24 12.01.24 09.01.24 14.01.24 14.01.24 - 13.01.24 11.01.24 14.01.24 13.01.24 14.01.24
_ Max-Zeit 12:00 13:00 00:07 09:15 10:00 08:35 22:48 - 12:46 12:46 11:38 10:24 06:24
Maximum _ 23,9 °C 3,1 °C 54 % 95 % 1037,9 hPa 0,2 l/m² 32,2 km/h
SW (5 Bft)
- 0,05 h 406 W/m² 1,5 °C 1,2 °C 43,5 km/h
SW (6 Bft)
Durchschnitt _ 22,2 °C -3,5 °C 44 % 86 % 1026,8 hPa #1,8 l/m² 8,5 km/h (2 Bft) SW #33:25 h 37 W/m² -5,5 °C -6,6 °C 12,6 km/h (3 Bft)
© 2009 Mathias Hoßbach